KZR345 UATE-UBBB

Flight info

Callsign KZR345
Flight time N/A
Altitude 36000
Route GASBI1K GASBI/N0455F360 N60 ROPKA
Aircraft A20N/M-SDE2E3FGHIRWXY/LB1

Departure

Time N/A
Airport Aktau International Airport (UATE)

Arrival

Time 2026-05-05 17:29
Airport Heydar Aliyev International Airport (UBBB)
Time Latitude Longitude Altitude Speed Heading
2026-05-05 16:51 41.72755 50.33699 35628 ft 410 kts 192°
2026-05-05 16:51 41.69964 50.33176 35386 ft 409 kts 192°
2026-05-05 16:52 41.67148 50.32649 35140 ft 408 kts 193°
2026-05-05 16:52 41.64324 50.32120 34898 ft 409 kts 193°
2026-05-05 16:52 41.61508 50.31593 34660 ft 408 kts 193°
2026-05-05 16:52 41.58701 50.31068 34423 ft 408 kts 193°
2026-05-05 16:53 41.55884 50.30542 34185 ft 408 kts 193°
2026-05-05 16:53 41.53074 50.30017 33923 ft 408 kts 193°
2026-05-05 16:53 41.50254 50.29491 33230 ft 411 kts 193°
2026-05-05 16:53 41.47414 50.28960 32449 ft 413 kts 192°
2026-05-05 16:54 41.44561 50.28429 31700 ft 413 kts 192°
2026-05-05 16:54 41.41719 50.27902 31068 ft 410 kts 192°
2026-05-05 16:54 41.38943 50.27389 30563 ft 405 kts 192°
2026-05-05 16:54 41.36163 50.26875 30031 ft 400 kts 192°
2026-05-05 16:55 41.33420 50.26367 29463 ft 395 kts 192°
2026-05-05 16:55 41.30715 50.25867 28950 ft 389 kts 192°
2026-05-05 16:55 41.28055 50.25375 28441 ft 383 kts 192°
2026-05-05 16:55 41.25431 50.24890 27945 ft 378 kts 192°
2026-05-05 16:56 41.22832 50.24409 27464 ft 373 kts 192°
2026-05-05 16:56 41.20286 50.23939 26977 ft 368 kts 192°
2026-05-05 16:56 41.17691 50.23453 26489 ft 388 kts 192°
2026-05-05 16:56 41.14962 50.22948 25976 ft 402 kts 191°
2026-05-05 16:57 41.12144 50.22721 25444 ft 408 kts 184°
2026-05-05 16:57 41.09301 50.22942 24911 ft 410 kts 178°
2026-05-05 16:57 41.06509 50.23389 24331 ft 407 kts 178°
2026-05-05 16:57 41.03717 50.23829 23832 ft 401 kts 178°
2026-05-05 16:58 41.00956 50.24255 23249 ft 396 kts 178°
2026-05-05 16:58 40.98242 50.24670 22923 ft 385 kts 178°
2026-05-05 16:58 40.95609 50.25071 22630 ft 379 kts 178°
2026-05-05 16:58 40.92991 50.25463 22097 ft 378 kts 178°
2026-05-05 16:59 40.90384 50.25853 21555 ft 375 kts 178°
2026-05-05 16:59 40.87804 50.26241 21022 ft 371 kts 178°
2026-05-05 16:59 40.85267 50.26622 20496 ft 367 kts 178°
2026-05-05 16:59 40.82733 50.27003 19967 ft 364 kts 178°
2026-05-05 17:00 40.80227 50.27380 19447 ft 361 kts 178°
2026-05-05 17:00 40.77744 50.27753 18934 ft 358 kts 178°
2026-05-05 17:00 40.75271 50.28124 18380 ft 357 kts 179°
2026-05-05 17:00 40.72820 50.28491 17868 ft 352 kts 179°
2026-05-05 17:01 40.70399 50.28855 17367 ft 348 kts 179°
2026-05-05 17:01 40.68000 50.29214 16870 ft 344 kts 179°
2026-05-05 17:01 40.65635 50.29568 16381 ft 340 kts 179°
2026-05-05 17:01 40.63291 50.29823 15896 ft 334 kts 184°
2026-05-05 17:02 40.61008 50.29818 15426 ft 330 kts 185°
2026-05-05 17:02 40.58722 50.29809 14956 ft 327 kts 185°
2026-05-05 17:02 40.56455 50.29805 14504 ft 325 kts 185°
2026-05-05 17:02 40.54205 50.29804 14040 ft 322 kts 185°
2026-05-05 17:03 40.51965 50.29804 13570 ft 320 kts 185°
2026-05-05 17:03 40.49751 50.29804 13119 ft 316 kts 185°
2026-05-05 17:03 40.47564 50.29805 12665 ft 312 kts 185°
2026-05-05 17:03 40.45405 50.29805 12232 ft 309 kts 185°
2026-05-05 17:04 40.43264 50.29805 11801 ft 306 kts 185°
2026-05-05 17:04 40.41144 50.29805 11371 ft 303 kts 185°
2026-05-05 17:04 40.39038 50.29805 10940 ft 301 kts 184°
2026-05-05 17:04 40.36890 50.29799 10585 ft 323 kts 184°
2026-05-05 17:05 40.34586 50.29789 10483 ft 335 kts 184°
2026-05-05 17:05 40.32268 50.29790 10447 ft 331 kts 184°
2026-05-05 17:05 40.29994 50.29797 10368 ft 321 kts 184°
2026-05-05 17:05 40.27837 50.29803 10242 ft 308 kts 184°
2026-05-05 17:06 40.25737 50.29808 10141 ft 295 kts 184°
2026-05-05 17:06 40.23727 50.29819 9981 ft 284 kts 183°
2026-05-05 17:06 40.21758 50.29854 9559 ft 282 kts 183°
2026-05-05 17:06 40.19800 50.29895 9120 ft 282 kts 182°
2026-05-05 17:07 40.17841 50.29937 8699 ft 280 kts 182°
2026-05-05 17:07 40.15912 50.29978 8498 ft 271 kts 182°
2026-05-05 17:07 40.14071 50.29952 8394 ft 256 kts 191°
2026-05-05 17:07 40.12467 50.29186 8293 ft 240 kts 215°
2026-05-05 17:08 40.11321 50.27710 8194 ft 227 kts 236°
2026-05-05 17:08 40.10464 50.26015 8028 ft 219 kts 236°
2026-05-05 17:08 40.09617 50.24360 8011 ft 225 kts 235°
2026-05-05 17:08 40.08743 50.22664 8010 ft 224 kts 235°
2026-05-05 17:09 40.07911 50.20950 8012 ft 224 kts 242°
2026-05-05 17:09 40.07366 50.19039 8016 ft 226 kts 254°
2026-05-05 17:09 40.07008 50.17038 8014 ft 226 kts 254°
2026-05-05 17:09 40.06640 50.15042 8017 ft 226 kts 254°
2026-05-05 17:10 40.06263 50.13045 8009 ft 226 kts 253°
2026-05-05 17:10 40.05888 50.11080 8012 ft 226 kts 254°
2026-05-05 17:10 40.05689 50.09039 8010 ft 228 kts 267°
2026-05-05 17:10 40.05825 50.06957 8015 ft 230 kts 273°
2026-05-05 17:11 40.06003 50.04881 8013 ft 230 kts 272°
2026-05-05 17:11 40.06170 50.02807 8013 ft 230 kts 272°
2026-05-05 17:11 40.06333 50.00727 8012 ft 230 kts 272°
2026-05-05 17:11 40.06578 49.98655 8014 ft 232 kts 281°
2026-05-05 17:12 40.07150 49.96666 8013 ft 237 kts 292°
2026-05-05 17:12 40.07883 49.94769 8011 ft 237 kts 292°
2026-05-05 17:12 40.08613 49.92842 8014 ft 236 kts 292°
2026-05-05 17:12 40.09423 49.90982 8007 ft 239 kts 308°
2026-05-05 17:13 40.10815 49.89747 8017 ft 250 kts 339°
2026-05-05 17:13 40.12560 49.89569 8017 ft 257 kts
2026-05-05 17:13 40.14196 49.90529 8017 ft 261 kts 37°
2026-05-05 17:13 40.15551 49.92104 8010 ft 261 kts 45°
2026-05-05 17:14 40.16866 49.93740 7990 ft 262 kts 43°
2026-05-05 17:14 40.18247 49.95289 7867 ft 259 kts 39°
2026-05-05 17:14 40.19669 49.96721 7623 ft 257 kts 36°
2026-05-05 17:14 40.21122 49.98087 7328 ft 256 kts 35°
2026-05-05 17:15 40.22566 49.99400 7172 ft 247 kts 34°
2026-05-05 17:15 40.23925 50.00624 7037 ft 234 kts 34°
2026-05-05 17:15 40.25196 50.01767 6954 ft 208 kts 34°
2026-05-05 17:15 40.26320 50.02781 6803 ft 183 kts 34°
2026-05-05 17:16 40.27308 50.03673 6642 ft 165 kts 34°
2026-05-05 17:16 40.28243 50.04521 6342 ft 161 kts 37°
2026-05-05 17:16 40.28989 50.05591 5997 ft 158 kts 55°
2026-05-05 17:16 40.29512 50.06847 5615 ft 156 kts 84°
2026-05-05 17:17 40.29459 50.08216 5267 ft 149 kts 106°
2026-05-05 17:17 40.29175 50.09537 4801 ft 153 kts 116°
2026-05-05 17:17 40.28856 50.10645 4383 ft 156 kts 116°
2026-05-05 17:17 40.28458 50.11982 3894 ft 159 kts 116°
2026-05-05 17:18 40.27968 50.13279 3413 ft 160 kts 125°
2026-05-05 17:18 40.27353 50.14495 2916 ft 161 kts 126°
2026-05-05 17:18 40.26703 50.15695 2415 ft 162 kts 126°
2026-05-05 17:18 40.26036 50.16853 2068 ft 154 kts 126°
2026-05-05 17:19 40.25341 50.17798 1989 ft 134 kts 142°
2026-05-05 17:19 40.24557 50.18530 2017 ft 147 kts 143°
2026-05-05 17:19 40.23714 50.19310 2007 ft 147 kts 143°
2026-05-05 17:19 40.22891 50.20081 2006 ft 144 kts 143°
2026-05-05 17:20 40.22281 50.21081 2019 ft 142 kts 105°
2026-05-05 17:20 40.22291 50.22301 2004 ft 133 kts 63°
2026-05-05 17:20 40.22884 50.23182 2007 ft 130 kts 25°
2026-05-05 17:20 40.23745 50.23370 2009 ft 127 kts 348°
2026-05-05 17:21 40.24550 50.22898 2005 ft 127 kts 330°
2026-05-05 17:21 40.25319 50.22346 2006 ft 126 kts 332°
2026-05-05 17:21 40.26097 50.21803 2002 ft 127 kts 332°
2026-05-05 17:22 40.27270 50.20079 2005 ft 128 kts 311°
2026-05-05 17:22 40.27836 50.19182 2006 ft 127 kts 312°
2026-05-05 17:22 40.28402 50.18293 2001 ft 129 kts 312°
2026-05-05 17:22 40.28964 50.17387 2003 ft 128 kts 311°
2026-05-05 17:23 40.29521 50.16472 2004 ft 129 kts 311°
2026-05-05 17:23 40.30072 50.15557 2006 ft 128 kts 311°
2026-05-05 17:23 40.30621 50.14640 2002 ft 127 kts 311°
2026-05-05 17:23 40.31165 50.13732 2002 ft 127 kts 311°
2026-05-05 17:24 40.31715 50.12810 2003 ft 130 kts 311°
2026-05-05 17:24 40.32269 50.11882 1998 ft 128 kts 311°
2026-05-05 17:24 40.32632 50.11272 2003 ft 127 kts 311°
2026-05-05 17:24 40.33355 50.10058 2000 ft 125 kts 311°
2026-05-05 17:25 40.33896 50.09151 2008 ft 127 kts 311°
2026-05-05 17:25 40.34260 50.08545 2000 ft 128 kts 311°
2026-05-05 17:25 40.35016 50.07352 2004 ft 125 kts 320°
2026-05-05 17:25 40.35749 50.06782 1990 ft 126 kts 340°
2026-05-05 17:26 40.36608 50.06530 1861 ft 126 kts 352°
2026-05-05 17:26 40.37476 50.06453 1690 ft 123 kts 358°
2026-05-05 17:26 40.38369 50.06426 1508 ft 131 kts 359°
2026-05-05 17:26 40.39263 50.06451 1319 ft 126 kts
2026-05-05 17:27 40.40126 50.06468 1148 ft 121 kts 358°
2026-05-05 17:27 40.40970 50.06421 970 ft 122 kts 357°
2026-05-05 17:27 40.41827 50.06375 817 ft 126 kts 358°
2026-05-05 17:27 40.42708 50.06362 626 ft 129 kts 359°
2026-05-05 17:28 40.43609 50.06362 466 ft 127 kts 358°
2026-05-05 17:28 40.44485 50.06351 292 ft 125 kts 358°
2026-05-05 17:28 40.45372 50.06335 117 ft 130 kts 357°
2026-05-05 17:28 40.46274 50.06317 18 ft 123 kts 358°
2026-05-05 17:29 40.46804 50.06307 9 ft 104 kts 358°
2026-05-05 17:29 40.47409 50.06269 7 ft 27 kts 341°
2026-05-05 17:29 40.47513 50.06208 7 ft 12 kts 332°
2026-05-05 17:29 40.47557 50.06163 8 ft 5 kts 321°
2026-05-05 17:30 40.47570 50.06149 8 ft 0 kts 320°
2026-05-05 17:30 40.47571 50.06148 8 ft 0 kts 320°
2026-05-05 17:30 40.47572 50.06147 8 ft 1 kts 320°
2026-05-05 17:30 40.47584 50.06134 8 ft 4 kts 320°
2026-05-05 17:31 40.47608 50.06099 9 ft 6 kts 292°
2026-05-05 17:31 40.47582 50.06074 9 ft 7 kts 192°
2026-05-05 17:31 40.47546 50.06078 8 ft 9 kts 175°
2026-05-05 17:31 40.47439 50.06082 8 ft 14 kts 179°
2026-05-05 17:32 40.47366 50.06082 8 ft 17 kts 180°
2026-05-05 17:32 40.47240 50.06085 8 ft 20 kts 179°
2026-05-05 17:32 40.47093 50.06086 8 ft 23 kts 180°
2026-05-05 17:32 40.46961 50.06087 8 ft 0 kts 179°
2026-05-05 17:33 40.46960 50.06087 8 ft 0 kts 187°
2026-05-05 17:33 40.46960 50.06086 8 ft 0 kts 197°
2026-05-05 17:33 40.46955 50.06080 8 ft 1 kts 228°
2026-05-05 17:33 40.46946 50.06002 8 ft 14 kts 267°
2026-05-05 17:34 40.46943 50.05855 8 ft 18 kts 269°
2026-05-05 17:34 40.46940 50.05685 8 ft 20 kts 268°
2026-05-05 17:34 40.46936 50.05526 8 ft 14 kts 269°
2026-05-05 17:34 40.46922 50.05403 10 ft 10 kts 223°
2026-05-05 17:35 40.46863 50.05385 8 ft 9 kts 174°
2026-05-05 17:35 40.46811 50.05383 8 ft 6 kts 191°
2026-05-05 17:35 40.46794 50.05366 8 ft 5 kts 219°
2026-05-05 17:35 40.46765 50.05325 8 ft 0 kts 230°
2026-05-05 17:36 40.46757 50.05313 9 ft 4 kts 230°
2026-05-05 17:36 40.46750 50.05301 8 ft 2 kts 230°
2026-05-05 17:36 40.46745 50.05295 8 ft 0 kts 230°